CASE2 Weather Reports


Display with metric or nautical units.
time (UTC)temp
F
wind
direction
speed
MPH
gust
MPH
rain 1hr
in
rain 24hr
in
rain mn
in
humidity
%
barometer
mb
20260507063055 48 258 0.0 7.0 0.00 0.00 0.00 83 1015.1
20260507061549 47 360 0.0 4.0 0.00 0.00 0.00 88 1015.0
20260507060046 46 227 0.0 6.0 0.00 0.00 0.00 91 1015.0
20260507054542 44 360 1.0 5.0 0.00 0.00 0.00 93 1015.0
20260507053028 43 219 0.0 1.0 0.00 0.00 0.00 93 1015.0
20260507051521 41 219 0.0 1.0 0.00 0.00 0.00 94 1014.9
20260507050036 39 219 0.0 0.0 0.00 0.00 0.00 93 1014.8
20260507044519 37 219 0.0 0.0 0.00 0.00 0.00 93 1014.7
20260507043008 36 219 0.0 0.0 0.00 0.00 0.00 93 1014.6
20260507041505 35 219 0.0 0.0 0.00 0.00 0.00 93 1014.5
20260507040002 35 219 0.0 0.0 0.00 0.00 0.00 93 1014.4
20260507034607 35 219 0.0 0.0 0.00 0.00 0.00 93 1014.4
20260507033102 34 219 0.0 0.0 0.00 0.00 0.00 92 1014.3
20260507031543 33 219 0.0 0.0 0.00 0.00 0.00 92 1014.2
20260507030044 33 219 0.0 0.0 0.00 0.00 0.00 92 1014.2
20260507024545 33 219 0.0 0.0 0.00 0.00 0.00 92 1014.0
20260507023038 34 219 0.0 0.0 0.00 0.00 0.00 92 1014.0
20260507021548 34 219 0.0 0.0 0.00 0.00 0.00 92 1013.9
20260507020034 34 219 0.0 0.0 0.00 0.00 0.00 91 1013.9
20260507014532 35 219 0.0 0.0 0.00 0.00 0.00 91 1013.7
20260507013033 36 219 0.0 0.0 0.00 0.00 0.00 91 1013.6
20260507011522 37 219 0.0 0.0 0.00 0.00 0.00 91 1013.6
20260507010026 37 219 0.0 0.0 0.00 0.00 0.00 91 1013.5
20260507004509 38 219 0.0 0.0 0.00 0.00 0.00 91 1013.5
20260507003007 39 219 0.0 0.0 0.00 0.00 0.00 90 1013.5
20260507001506 39 219 0.0 1.0 0.00 0.00 0.00 91 1013.4
20260507000003 39 219 0.0 0.0 0.00 0.00 0.00 90 1013.4
20260506234502 39 219 0.0 2.0 0.00 0.00 0.00 90 1013.2
20260506233002 40 219 0.0 1.0 0.00 0.00 0.00 90 1013.2
20260506231549 39 219 0.0 1.0 0.00 0.00 0.00 89 1013.2
20260506230050 39 219 0.0 0.0 0.00 0.00 0.00 88 1013.2
20260506224547 40 219 0.0 1.0 0.00 0.00 0.00 87 1013.2
20260506223048 41 219 0.0 1.0 0.00 0.00 0.00 87 1013.3
20260506221543 41 219 0.0 0.0 0.00 0.00 0.00 86 1013.2
20260506220040 41 219 0.0 1.0 0.00 0.00 0.00 85 1013.2
20260506214541 42 219 0.0 2.0 0.00 0.00 0.00 84 1013.1
20260506213036 42 219 0.0 1.0 0.00 0.00 0.00 82 1013.0
20260506211515 43 219 0.0 1.0 0.00 0.00 0.00 80 1012.9
20260506210012 44 219 0.0 2.0 0.00 0.00 0.00 78 1012.8
20260506204601 44 202 0.0 1.0 0.00 0.00 0.00 76 1012.7
20260506203055 45 202 0.0 3.0 0.00 0.00 0.00 74 1012.6
20260506201557 45 198 0.0 0.0 0.00 0.00 0.00 71 1012.4
20260506200108 45 198 0.0 0.0 0.00 0.00 0.00 69 1012.4
20260506194603 46 198 0.0 1.0 0.00 0.00 0.00 65 1012.2
20260506193051 47 198 0.0 1.0 0.00 0.00 0.00 64 1012.2
20260506191549 48 198 0.0 0.0 0.00 0.00 0.00 61 1012.0
20260506190048 49 198 0.0 0.0 0.00 0.00 0.00 58 1011.9
20260506184529 50 198 0.0 0.0 0.00 0.00 0.00 55 1011.7
20260506183027 51 360 0.0 4.0 0.00 0.00 0.00 52 1011.5
20260506181520 52 360 0.0 5.0 0.00 0.00 0.00 49 1011.2
20260506180015 52 360 1.0 6.0 0.00 0.00 0.00 49 1011.2
20260506174511 53 360 0.0 6.0 0.00 0.00 0.00 48 1011.1
20260506173011 53 360 0.0 7.0 0.00 0.00 0.00 47 1011.0
20260506171518 53 360 1.0 6.0 0.00 0.00 0.00 44 1010.9
20260506170009 54 360 1.0 7.0 0.00 0.00 0.00 43 1010.9
20260506164508 54 97 0.0 8.0 0.00 0.00 0.00 42 1010.8
20260506163007 54 360 3.0 10.0 0.00 0.00 0.00 41 1010.8
20260506161603 53 152 1.0 6.0 0.00 0.00 0.00 43 1010.8
20260506160055 53 71 0.0 0.0 0.00 0.00 0.00 61 1010.9
20260506154555 54 71 0.0 3.0 0.00 0.00 0.00 65 1010.9
20260506153052 54 342 0.0 4.0 0.00 0.00 0.00 63 1010.9
20260506151604 55 23 0.0 2.0 0.00 0.00 0.00 64 1010.9
20260506150050 56 360 0.0 3.0 0.00 0.00 0.00 64 1010.8
20260506144548 55 286 0.0 3.0 0.00 0.00 0.00 68 1010.8
20260506143053 53 313 0.0 5.0 0.00 0.00 0.00 70 1010.8
20260506141530 53 296 0.0 2.0 0.00 0.00 0.00 69 1010.7
20260506140035 54 267 0.0 3.0 0.00 0.00 0.00 70 1010.7
20260506134518 54 286 0.0 1.0 0.00 0.00 0.00 69 1010.6
20260506133021 54 360 0.0 4.0 0.00 0.00 0.00 70 1010.5
20260506131522 53 244 0.0 4.0 0.00 0.00 0.00 71 1010.4
20260506130017 54 17 0.0 4.0 0.00 0.00 0.00 69 1010.3
20260506124514 55 333 0.0 2.0 0.00 0.00 0.00 66 1010.3
20260506123016 56 339 0.0 3.0 0.00 0.00 0.00 63 1010.3
20260506121513 58 313 1.0 5.0 0.00 0.00 0.00 60 1010.2
20260506120010 57 355 0.0 4.0 0.00 0.00 0.00 62 1010.3
20260506114559 57 307 0.0 4.0 0.00 0.00 0.00 60 1010.4
20260506113106 56 40 0.0 4.0 0.00 0.00 0.00 62 1010.4
20260506111556 56 336 0.0 5.0 0.00 0.00 0.00 61 1010.4
20260506104608 54 355 0.0 3.0 0.00 0.00 0.00 63 1010.5
20260506103050 54 346 0.0 4.0 0.00 0.00 0.00 65 1010.5
20260506101554 54 299 1.0 4.0 0.00 0.00 0.00 63 1010.5
20260506100045 53 290 0.0 4.0 0.00 0.00 0.00 65 1010.5
20260506094527 52 313 0.0 3.0 0.00 0.00 0.00 64 1010.6
20260506093025 53 304 0.0 4.0 0.00 0.00 0.00 65 1010.5
20260506091517 53 360 0.0 3.0 0.00 0.00 0.00 63 1010.6
20260506090011 53 296 0.0 3.0 0.00 0.00 0.00 63 1010.6
20260506084515 51 317 0.0 3.0 0.00 0.00 0.00 61 1010.5
20260506083005 51 360 0.0 4.0 0.00 0.00 0.00 61 1010.5
20260506081506 50 30 0.0 4.0 0.00 0.00 0.00 62 1010.4
20260506073100 48 42 0.0 3.0 0.00 0.00 0.00 65 1010.5
20260506071541 48 30 1.0 4.0 0.00 0.00 0.00 62 1010.5